DW6554 Weather Reports


Display with metric or nautical units.
time (UTC)temp
F
wind
direction
speed
MPH
gust
MPH
rain 1hr
in
rain 24hr
in
rain mn
in
humidity
%
barometer
mb
20180624010911 58 0.0 0.0 0.00 0.00 0.00 89 1011.7
20180624005412 57 0.0 0.0 0.00 0.00 0.00 90 1011.7
20180624003909 57 0.0 0.0 0.00 0.00 0.00 90 1011.5
20180624002409 58 0.0 0.0 0.00 0.00 0.00 90 1011.1
20180624000911 58 0.0 0.0 0.00 0.00 0.00 90 1011.6
20180623235408 58 0.0 0.0 0.00 0.00 0.00 90 1011.4
20180623233909 59 0.0 0.0 0.00 0.00 0.00 90 1011.2
20180623232411 59 0.0 0.0 0.00 0.00 0.00 89 1011.2
20180623230906 59 0.0 0.0 0.00 0.00 0.00 90 1011.1
20180623225409 59 0.0 0.0 0.00 0.00 0.00 90 1011.1
20180623223906 59 0.0 0.0 0.00 0.00 0.00 90 1011.1
20180623222404 59 0.0 0.0 0.00 0.00 0.00 90 1011.1
20180623220904 59 0.0 0.0 0.00 0.00 0.00 90 1011.2
20180623215404 59 0.0 0.0 0.00 0.00 0.00 90 1011.2
20180623213905 60 0.0 0.0 0.00 0.00 0.00 90 1011.2
20180623212401 60 0.0 0.0 0.00 0.00 0.00 90 1011.3
20180623210901 60 0.0 0.0 0.00 0.00 0.00 90 1011.7
20180623205400 61 0.0 0.0 0.00 0.00 0.00 90 1011.8
20180623203900 61 0.0 0.0 0.00 0.00 0.00 90 1011.4
20180623202359 61 0.0 0.0 0.00 0.00 0.00 90 1011.3
20180623200900 61 0.0 0.0 0.00 0.00 0.00 89 1011.4
20180623195356 61 0.0 0.0 0.00 0.00 0.00 89 1011.6
20180623193856 61 0.0 0.0 0.00 0.00 0.00 88 1011.7
20180623192357 61 0.0 0.0 0.00 0.00 0.00 88 1011.8
20180623190853 61 0.0 0.0 0.00 0.00 0.00 87 1011.9
20180623185354 61 0.0 0.0 0.00 0.00 0.00 86 1011.9
20180623183855 61 0.0 0.0 0.00 0.00 0.00 86 1012.0
20180623182349 61 0.0 0.0 0.00 0.00 0.00 86 1012.1
20180623180851 61 0.0 0.0 0.00 0.00 0.00 86 1012.2
20180623175349 61 0.0 0.0 0.00 0.00 0.00 86 1012.7
20180623173845 61 0.0 0.0 0.00 0.00 0.00 85 1012.7
20180623172344 61 0.0 0.0 0.00 0.00 0.00 84 1012.6
20180623170843 61 0.0 0.0 0.00 0.00 0.00 85 1012.8
20180623165341 61 0.0 0.0 0.00 0.00 0.00 85 1012.9
20180623163842 60 0.0 0.0 0.00 0.00 0.00 84 1013.1
20180623162335 60 0.0 0.0 0.00 0.00 0.00 84 1013.5
20180623160834 60 0.0 0.0 0.00 0.00 0.00 83 1013.7
20180623155335 60 0.0 0.0 0.00 0.00 0.00 82 1014.0
20180623153834 61 0.0 0.0 0.00 0.00 0.00 82 1014.0
20180623152334 61 0.0 0.0 0.00 0.00 0.00 81 1014.1
20180623150830 60 0.0 0.0 0.00 0.00 0.00 81 1014.1
20180623145332 60 0.0 0.0 0.00 0.00 0.00 81 1014.1
20180623143830 60 0.0 0.0 0.00 0.00 0.00 80 1014.2
20180623142326 59 0.0 0.0 0.00 0.00 0.00 80 1014.5
20180623140821 59 0.0 0.0 0.00 0.00 0.00 81 1014.5
20180623135320 57 0.0 0.0 0.00 0.00 0.00 83 1014.6
20180623133820 57 0.0 0.0 0.00 0.00 0.00 83 1014.9
20180623132317 56 0.0 0.0 0.00 0.00 0.00 82 1014.8
20180623130814 56 0.0 0.0 0.00 0.00 0.00 82 1014.9
20180623125313 57 0.0 0.0 0.00 0.00 0.00 81 1015.2
20180623123812 58 0.0 0.0 0.00 0.00 0.00 79 1015.2
20180623122314 58 0.0 0.0 0.00 0.00 0.00 77 1015.4
20180623120809 58 0.0 0.0 0.00 0.00 0.00 76 1015.5
20180623115311 58 0.0 0.0 0.00 0.00 0.00 76 1015.5
20180623113808 58 0.0 0.0 0.00 0.00 0.00 75 1015.5
20180623112307 58 0.0 0.0 0.00 0.00 0.00 75 1015.8
20180623110809 58 0.0 0.0 0.00 0.00 0.00 73 1015.7
20180623105306 58 0.0 0.0 0.00 0.00 0.00 72 1016.1
20180623103805 57 0.0 0.0 0.00 0.00 0.00 73 1015.7
20180623102301 57 0.0 0.0 0.00 0.00 0.00 74 1016.0
20180623100800 56 0.0 0.0 0.00 0.00 0.00 76 1016.1
20180623095259 56 0.0 0.0 0.00 0.00 0.00 81 1016.2
20180623093801 56 0.0 0.0 0.00 0.00 0.00 77 1016.1
20180623092258 56 0.0 0.0 0.00 0.00 0.00 80 1016.1
20180623090758 56 0.0 0.0 0.00 0.00 0.00 76 1016.1
20180623085254 56 0.0 0.0 0.00 0.00 0.00 75 1016.3
20180623083753 55 0.0 0.0 0.00 0.00 0.00 79 1016.4
20180623082251 55 0.0 0.0 0.00 0.00 0.00 81 1016.5
20180623080749 55 0.0 0.0 0.00 0.00 0.00 81 1016.7
20180623075250 55 0.0 0.0 0.00 0.00 0.00 81 1016.7
20180623073748 55 0.0 0.0 0.00 0.00 0.00 82 1016.9
20180623072246 55 0.0 0.0 0.00 0.00 0.00 81 1017.1
20180623070746 55 0.0 0.0 0.00 0.00 0.00 80 1017.1
20180623065245 55 0.0 0.0 0.00 0.00 0.00 80 1017.1
20180623063747 55 0.0 0.0 0.00 0.00 0.00 80 1017.3
20180623062240 55 0.0 0.0 0.00 0.00 0.00 81 1017.7
20180623060742 55 0.0 0.0 0.00 0.00 0.00 82 1017.7
20180623055238 55 0.0 0.0 0.00 0.00 0.00 81 1018.2
20180623053743 55 0.0 0.0 0.00 0.00 0.00 82 1018.0
20180623052237 55 0.0 0.0 0.00 0.00 0.00 82 1018.2
20180623050735 55 0.0 0.0 0.00 0.00 0.00 82 1018.2
20180623043732 55 0.0 0.0 0.00 0.00 0.00 81 1018.5
20180623042232 56 0.0 0.0 0.00 0.00 0.00 82 1018.6
20180623040729 56 0.0 0.0 0.00 0.00 0.00 81 1018.6
20180623035229 56 0.0 0.0 0.00 0.00 0.00 80 1018.6
20180623033728 56 0.0 0.0 0.00 0.00 0.00 80 1018.7
20180623032227 57 0.0 0.0 0.00 0.00 0.00 79 1018.6
20180623030726 57 0.0 0.0 0.00 0.00 0.00 81 1018.7
20180623025231 57 0.0 0.0 0.00 0.00 0.00 82 1018.8
20180623023725 57 0.0 0.0 0.00 0.00 0.00 82 1018.9
20180623022225 57 0.0 0.0 0.00 0.00 0.00 82 1018.8
20180623020724 59 0.0 0.0 0.00 0.00 0.00 79 1018.9
20180623015226 60 0.0 0.0 0.00 0.00 0.00 77 1018.9
20180623013723 61 0.0 0.0 0.00 0.00 0.00 76 1018.8
20180623012225 61 0.0 0.0 0.00 0.00 0.00 78 1018.6